Home > Weather > Esfahãn > Past weeks

Flag for Iran Weather for the Past 2 Weeks in Esfahãn, Iran

Now
41 °F

Clear.


Feels Like: 36 °F
Forecast: 24 / 58 °F
Wind: 7 mph from Northeast

Location: Esfahan

Current Time: Feb 14, 2016 at 11:13:10 PM

Latest Report: Feb 14, 2016 at 10:30 PM


Visibility: 10 mi

Pressure: 30.12 "Hg (24.82 "Hg at 1576m altitude)

Humidity: 28%

Dew point: 10 °F

Location of EsfahãnLocation

Historic Weather in Esfahãn — Graph

°F

Esfahãn Temperature Yesterday

Maximum temperature yesterday: 54 °F (at 2:30 PM)
Minimum temperature yesterday: 19 °F (at 5:00 AM)
Average temperature yesterday: 36 °F

High & Low Weather Summary for the Past Weeks

 TemperatureHumidityPressure
High63 °F (Feb 6, 3:00 PM)80% (Feb 4, 5:00 AM)30.48 "Hg (Feb 4, 5:00 AM)
Low12 °F (Jan 31, 5:30 AM)8% (Feb 6, 3:00 PM)29.86 "Hg (Feb 8, 1:30 PM)
Average36 °F40%30.14 "Hg
* Reported Jan 30 9:30 PM — Feb 14 10:00 PM, Esfahãn, Weather by CustomWeather, © 2016

Note: Actual official high and low records may vary slightly from our data, if they occured in-between our weather recording intervals... More about our weather records

Advertising

Esfahãn Weather History for the Previous 24 Hours

 ConditionsComfort  
Time TempWeatherWind HumidityBarometerVisibility
10:00 PM
Sun, Feb 14
39 °FClear.7 mph30%30.12 "Hg10 mi
9:30 PM41 °FClear.5 mph28%30.12 "Hg10 mi
9:00 PM45 °FClear.No wind27%30.09 "Hg10 mi
8:30 PM45 °FClear.5 mph27%30.09 "Hg10 mi
8:00 PM46 °FClear.5 mph27%30.09 "Hg10 mi
7:30 PM45 °FClear.No wind27%30.09 "Hg10 mi
7:00 PM48 °FClear.No wind25%30.07 "Hg10 mi
6:30 PM48 °FClear.No wind25%30.07 "Hg10 mi
6:00 PM50 °FSunny.No wind24%30.07 "Hg10 mi
5:30 PM52 °FSunny.No wind24%30.07 "Hg10 mi
5:00 PM54 °FSunny.No wind22%30.07 "Hg10 mi
4:30 PM55 °FSunny.9 mph23%30.07 "Hg10 mi
4:00 PM55 °FSunny.No wind26%30.07 "Hg10 mi
3:30 PM57 °FClear.No wind23%30.07 "Hg4 mi
3:00 PM54 °FClear.No wind24%30.07 "Hg4 mi
2:30 PM55 °FClear.No wind24%30.07 "Hg4 mi
2:00 PM55 °FClear.No wind26%30.09 "Hg4 mi
1:30 PM54 °FClear.9 mph28%30.09 "Hg4 mi
1:00 PM54 °FClear.No wind26%30.09 "Hg4 mi
12:30 PM52 °FClear.5 mph26%30.15 "Hg4 mi
12:00 PM52 °FClear.5 mph28%30.15 "Hg4 mi
11:00 AM46 °FClear.5 mph34%30.18 "Hg4 mi
10:30 AM43 °FClear.5 mph39%30.18 "Hg4 mi
10:00 AM43 °FClear.5 mph42%30.18 "Hg4 mi
9:30 AM37 °FClear.5 mph45%30.21 "Hg5 mi
9:00 AM30 °FSunny.7 mph37%30.18 "Hg10 mi
8:30 AM28 °FSunny.5 mph43%30.18 "Hg10 mi
8:00 AM23 °FSunny.No wind58%30.18 "Hg10 mi
7:30 AM21 °FSunny.7 mph63%30.18 "Hg10 mi
7:00 AM19 °FClear.7 mph53%30.18 "Hg10 mi
6:30 AM21 °FClear.5 mph54%30.15 "Hg10 mi
6:00 AM23 °FClear.5 mph54%30.15 "Hg10 mi
5:30 AM25 °FClear.5 mph50%30.15 "Hg10 mi
5:00 AM25 °FClear.7 mph50%30.15 "Hg10 mi
4:30 AM23 °FClear.7 mph54%30.15 "Hg10 mi
4:00 AM25 °FClear.No wind50%30.12 "Hg10 mi
3:30 AM25 °FClear.5 mph46%30.15 "Hg10 mi
3:00 AM27 °FClear.No wind39%30.15 "Hg10 mi
2:30 AM27 °FClear.7 mph39%30.15 "Hg10 mi
2:00 AM28 °FClear.5 mph37%30.15 "Hg10 mi
1:00 AM28 °FClear.5 mph40%30.15 "Hg10 mi
12:30 AM30 °FClear.No wind37%30.15 "Hg10 mi
12:00 AM32 °FClear.7 mph37%30.15 "Hg10 mi
11:30 PM
Sat, Feb 13
34 °FClear.7 mph35%30.15 "Hg10 mi
11:00 PM34 °FClear.5 mph35%30.15 "Hg10 mi
Weather by CustomWeather, © 2016

See weather overviewHow to use our weather pages